Location: Unspecified
(50.7693°N, 0.0000°E)
Time: 04:42:24
(UTC+00:00)

Transit 4A - Pass Details

Date: 29 June 2019
Orbit: 863 x 981 km, 66.8° (Epoch: 22 August)

Event Time Altitude Azimuth Distance (km) Brightness Sun altitude
Rises 06:33:10 0° 201° (SSW) 3,619 10.7 22.4°
Reaches altitude 10° 06:35:42 10° 198° (SSW) 2,690 10.1 22.8°
Maximum altitude 06:41:54 61° 120° (ESE) 1,097 9.1 23.8°
Drops below altitude 10° 06:48:14 10° 42° (NE) 2,744 11.2 24.7°
Sets 06:50:50 0° 39° (NE) 3,695 11.7 25.2°
